TIX221 CYYZ-KORL

Flight info

Callsign TIX221
Flight time 2h 27m
Altitude 36000
Route MIXUT7 GNTRY DCT DJB DCT SPAYD DCT VXV DCT THRSR DCT MJKAL JAFAR3
Aircraft B738/M-SDGIJ1LRWY/SB1

Departure

Time 2026-05-05 00:06
Airport Toronto Pearson International Airport (CYYZ)

Arrival

Time 2026-05-05 02:33
Airport Orlando Executive Airport (KORL)
Time Latitude Longitude Altitude Speed Heading
2026-05-04 23:20 43.68530 -79.62470 566 ft 0 kts 142°
2026-05-04 23:54 43.68537 -79.62477 566 ft 2 kts 142°
2026-05-04 23:54 43.68549 -79.62490 565 ft 2 kts 142°
2026-05-04 23:55 43.68562 -79.62500 565 ft 2 kts 167°
2026-05-04 23:55 43.68577 -79.62502 565 ft 2 kts 187°
2026-05-04 23:55 43.68602 -79.62485 565 ft 0 kts 228°
2026-05-04 23:56 43.68606 -79.62477 565 ft 1 kts 231°
2026-05-04 23:56 43.68607 -79.62476 565 ft 0 kts 231°
2026-05-04 23:59 43.68600 -79.62488 565 ft 3 kts 230°
2026-05-05 00:00 43.68573 -79.62530 565 ft 7 kts 228°
2026-05-05 00:00 43.68545 -79.62574 565 ft 9 kts 229°
2026-05-05 00:00 43.68493 -79.62663 565 ft 8 kts 227°
2026-05-05 00:00 43.68479 -79.62733 564 ft 7 kts 287°
2026-05-05 00:01 43.68510 -79.62792 563 ft 8 kts 315°
2026-05-05 00:01 43.68563 -79.62862 561 ft 12 kts 316°
2026-05-05 00:01 43.68633 -79.62955 559 ft 15 kts 316°
2026-05-05 00:01 43.68718 -79.63065 557 ft 18 kts 316°
2026-05-05 00:02 43.68818 -79.63196 554 ft 21 kts 316°
2026-05-05 00:02 43.68932 -79.63344 552 ft 24 kts 315°
2026-05-05 00:02 43.69047 -79.63496 550 ft 21 kts 323°
2026-05-05 00:02 43.69173 -79.63459 550 ft 19 kts 24°
2026-05-05 00:03 43.69313 -79.63409 551 ft 21 kts 20°
2026-05-05 00:03 43.69447 -79.63318 551 ft 22 kts 351°
2026-05-05 00:03 43.69453 -79.63447 550 ft 2 kts 226°
2026-05-05 00:03 43.69453 -79.63448 550 ft 0 kts 226°
2026-05-05 00:05 43.69352 -79.63593 550 ft 53 kts 226°
2026-05-05 00:05 43.68949 -79.64173 547 ft 112 kts 226°
2026-05-05 00:05 43.68288 -79.65138 573 ft 157 kts 227°
2026-05-05 00:05 43.67544 -79.66271 1075 ft 162 kts 226°
2026-05-05 00:06 43.66820 -79.67436 1808 ft 159 kts 229°
2026-05-05 00:06 43.66206 -79.68582 2627 ft 146 kts 234°
2026-05-05 00:06 43.65626 -79.69838 2825 ft 166 kts 236°
2026-05-05 00:06 43.64981 -79.71232 3180 ft 179 kts 235°
2026-05-05 00:07 43.64266 -79.72758 3480 ft 196 kts 235°
2026-05-05 00:07 43.63496 -79.74379 3878 ft 209 kts 235°
2026-05-05 00:07 43.62499 -79.75894 4352 ft 217 kts 218°
2026-05-05 00:07 43.61235 -79.77070 4897 ft 224 kts 216°
2026-05-05 00:08 43.59942 -79.78359 5337 ft 236 kts 220°
2026-05-05 00:08 43.58648 -79.79822 5877 ft 243 kts 222°
2026-05-05 00:08 43.57343 -79.81361 6481 ft 249 kts 223°
2026-05-05 00:08 43.56013 -79.82930 7178 ft 251 kts 223°
2026-05-05 00:09 43.54673 -79.84499 7805 ft 255 kts 223°
2026-05-05 00:09 43.53311 -79.86086 8447 ft 258 kts 223°
2026-05-05 00:09 43.51937 -79.87684 9057 ft 261 kts 223°
2026-05-05 00:09 43.50552 -79.89292 9711 ft 262 kts 223°
2026-05-05 00:10 43.49141 -79.90929 10280 ft 267 kts 224°
2026-05-05 00:10 43.47699 -79.92608 10579 ft 281 kts 224°
2026-05-05 00:10 43.46160 -79.94398 10908 ft 295 kts 224°
2026-05-05 00:10 43.44541 -79.96278 11200 ft 309 kts 224°
2026-05-05 00:11 43.42839 -79.98251 11510 ft 323 kts 224°
2026-05-05 00:11 43.41094 -80.00271 11859 ft 335 kts 224°
2026-05-05 00:11 43.39277 -80.02369 12362 ft 341 kts 224°
2026-05-05 00:11 43.37456 -80.04468 12968 ft 345 kts 224°
2026-05-05 00:12 43.35617 -80.06586 13543 ft 349 kts 224°
2026-05-05 00:12 43.33725 -80.08765 14194 ft 352 kts 224°
2026-05-05 00:12 43.31853 -80.10922 14850 ft 354 kts 224°
2026-05-05 00:12 43.29945 -80.13118 15490 ft 358 kts 224°
2026-05-05 00:13 43.28036 -80.15314 16094 ft 361 kts 224°
2026-05-05 00:13 43.26123 -80.17514 16724 ft 364 kts 224°
2026-05-05 00:13 43.24155 -80.19775 17310 ft 368 kts 224°
2026-05-05 00:13 43.22194 -80.22065 17878 ft 371 kts 226°
2026-05-05 00:14 43.20369 -80.24538 18686 ft 364 kts 232°
2026-05-05 00:14 43.18862 -80.27207 19652 ft 353 kts 239°
2026-05-05 00:14 43.17610 -80.30048 20628 ft 342 kts 244°
2026-05-05 00:14 43.16523 -80.32886 21552 ft 332 kts 246°
2026-05-05 00:15 43.15531 -80.35651 22452 ft 322 kts 247°
2026-05-05 00:15 43.14571 -80.38377 23301 ft 312 kts 247°
2026-05-05 00:15 43.13631 -80.41042 23885 ft 310 kts 247°
2026-05-05 00:15 43.12683 -80.43716 24213 ft 315 kts 247°
2026-05-05 00:16 43.11728 -80.46383 24638 ft 316 kts 246°
2026-05-05 00:16 43.10749 -80.49097 25003 ft 319 kts 246°
2026-05-05 00:16 43.09763 -80.51817 25387 ft 321 kts 246°
2026-05-05 00:16 43.08757 -80.54584 25744 ft 324 kts 246°
2026-05-05 00:17 43.07749 -80.57347 26123 ft 325 kts 246°
2026-05-05 00:17 43.06748 -80.60090 26453 ft 328 kts 246°
2026-05-05 00:17 43.05720 -80.62901 26798 ft 330 kts 246°
2026-05-05 00:17 43.04724 -80.65623 27100 ft 332 kts 246°
2026-05-05 00:18 43.03700 -80.68416 27419 ft 335 kts 245°
2026-05-05 00:18 43.02646 -80.71287 27732 ft 338 kts 246°
2026-05-05 00:18 43.01583 -80.74182 28118 ft 338 kts 246°
2026-05-05 00:18 43.00525 -80.77062 28392 ft 341 kts 246°
2026-05-05 00:19 42.99460 -80.79956 28699 ft 343 kts 245°
2026-05-05 00:19 42.98378 -80.82893 29003 ft 345 kts 245°
2026-05-05 00:19 42.97302 -80.85812 29309 ft 347 kts 245°
2026-05-05 00:19 42.96218 -80.88751 29596 ft 349 kts 245°
2026-05-05 00:20 42.95110 -80.91753 29900 ft 350 kts 245°
2026-05-05 00:20 42.94026 -80.94682 30222 ft 351 kts 245°
2026-05-05 00:20 42.92909 -80.97699 30533 ft 351 kts 245°
2026-05-05 00:20 42.91814 -81.00652 30800 ft 353 kts 245°
2026-05-05 00:21 42.90702 -81.03651 31055 ft 355 kts 245°
2026-05-05 00:21 42.89579 -81.06676 31253 ft 358 kts 246°
2026-05-05 00:21 42.88455 -81.09699 31537 ft 359 kts 246°
2026-05-05 00:21 42.87331 -81.12721 31791 ft 361 kts 246°
2026-05-05 00:22 42.86195 -81.15769 32085 ft 361 kts 246°
2026-05-05 00:22 42.85048 -81.18847 32298 ft 363 kts 246°
2026-05-05 00:22 42.83904 -81.21915 32516 ft 365 kts 246°
2026-05-05 00:22 42.82756 -81.24989 32816 ft 365 kts 246°
2026-05-05 00:23 42.81592 -81.28104 32998 ft 368 kts 246°
2026-05-05 00:23 42.80418 -81.31238 33234 ft 369 kts 246°
2026-05-05 00:23 42.79262 -81.34322 33467 ft 370 kts 246°
2026-05-05 00:23 42.78075 -81.37459 33600 ft 373 kts 245°
2026-05-05 00:24 42.76810 -81.40524 33935 ft 373 kts 242°
2026-05-05 00:24 42.75332 -81.43440 34050 ft 379 kts 236°
2026-05-05 00:24 42.73620 -81.46238 34224 ft 383 kts 233°
2026-05-05 00:24 42.71840 -81.48894 34430 ft 384 kts 232°
2026-05-05 00:25 42.69994 -81.51555 34557 ft 388 kts 231°
2026-05-05 00:25 42.68127 -81.54218 34756 ft 388 kts 232°
2026-05-05 00:25 42.66256 -81.56889 34925 ft 389 kts 231°
2026-05-05 00:25 42.64404 -81.59546 35114 ft 389 kts 231°
2026-05-05 00:26 42.62535 -81.62232 35367 ft 388 kts 232°
2026-05-05 00:26 42.60695 -81.64884 35595 ft 387 kts 232°
2026-05-05 00:26 42.58857 -81.67539 35647 ft 389 kts 231°
2026-05-05 00:27 42.55105 -81.72956 35647 ft 397 kts 230°
2026-05-05 00:27 42.50834 -81.77856 35641 ft 413 kts 216°
2026-05-05 00:28 42.45379 -81.80904 35648 ft 431 kts 202°
2026-05-05 00:28 42.39540 -81.82945 35647 ft 439 kts 199°
2026-05-05 00:29 42.33558 -81.84821 35641 ft 439 kts 198°
2026-05-05 00:29 42.27607 -81.86686 35654 ft 438 kts 199°
2026-05-05 00:30 42.21689 -81.88577 35664 ft 439 kts 199°
2026-05-05 00:30 42.15759 -81.90494 35663 ft 438 kts 199°
2026-05-05 00:31 42.09827 -81.92417 35683 ft 438 kts 199°
2026-05-05 00:31 42.03904 -81.94338 35678 ft 437 kts 199°
2026-05-05 00:32 41.98015 -81.96247 35683 ft 438 kts 199°
2026-05-05 00:32 41.92077 -81.98170 35683 ft 439 kts 198°
2026-05-05 00:33 41.86095 -82.00101 35685 ft 440 kts 198°
2026-05-05 00:33 41.80142 -82.02019 35686 ft 440 kts 198°
2026-05-05 00:34 41.74213 -82.03924 35691 ft 440 kts 198°
2026-05-05 00:34 41.68279 -82.05828 35686 ft 440 kts 198°
2026-05-05 00:35 41.62315 -82.07739 35703 ft 441 kts 198°
2026-05-05 00:35 41.56371 -82.09640 35704 ft 440 kts 198°
2026-05-05 00:36 41.50385 -82.11549 35707 ft 440 kts 198°
2026-05-05 00:36 41.44414 -82.13451 35709 ft 441 kts 198°
2026-05-05 00:37 41.38448 -82.15324 35709 ft 442 kts 197°
2026-05-05 00:37 41.32331 -82.16514 35720 ft 448 kts 189°
2026-05-05 00:38 41.26104 -82.16939 35720 ft 449 kts 186°
2026-05-05 00:38 41.19846 -82.17191 35727 ft 448 kts 186°
2026-05-05 00:39 41.13612 -82.17452 35738 ft 449 kts 186°
2026-05-05 00:39 41.07371 -82.17746 35745 ft 449 kts 186°
2026-05-05 00:40 41.01113 -82.18065 35831 ft 452 kts 186°
2026-05-05 00:40 40.94883 -82.18387 35706 ft 444 kts 186°
2026-05-05 00:41 40.88686 -82.18715 35761 ft 451 kts 187°
2026-05-05 00:41 40.82499 -82.19047 35772 ft 450 kts 186°
2026-05-05 00:42 40.76240 -82.19378 35766 ft 449 kts 186°
2026-05-05 00:42 40.69994 -82.19708 35773 ft 449 kts 186°
2026-05-05 00:43 40.63772 -82.20036 35771 ft 449 kts 186°
2026-05-05 00:43 40.57502 -82.20367 35778 ft 450 kts 186°
2026-05-05 00:44 40.51256 -82.20696 35778 ft 451 kts 186°
2026-05-05 00:44 40.44954 -82.21028 35780 ft 450 kts 186°
2026-05-05 00:45 40.38721 -82.21352 35781 ft 450 kts 186°
2026-05-05 00:45 40.32447 -82.21677 35789 ft 450 kts 186°
2026-05-05 00:46 40.26204 -82.22003 35786 ft 450 kts 186°
2026-05-05 00:46 40.19931 -82.22330 35790 ft 450 kts 186°
2026-05-05 00:47 40.13672 -82.22656 35804 ft 451 kts 186°
2026-05-05 00:47 40.07402 -82.22983 35813 ft 451 kts 186°
2026-05-05 00:48 40.01092 -82.23309 35809 ft 452 kts 186°
2026-05-05 00:48 39.94837 -82.23631 35813 ft 452 kts 186°
2026-05-05 00:49 39.88524 -82.23957 35814 ft 451 kts 186°
2026-05-05 00:49 39.82276 -82.24279 35817 ft 450 kts 186°
2026-05-05 00:50 39.76006 -82.24603 35823 ft 452 kts 186°
2026-05-05 00:50 39.69728 -82.24926 35828 ft 452 kts 186°
2026-05-05 00:51 39.63423 -82.25249 35829 ft 451 kts 186°
2026-05-05 00:51 39.57145 -82.25570 35827 ft 452 kts 186°
2026-05-05 00:52 39.50872 -82.25889 35825 ft 451 kts 186°
2026-05-05 00:52 39.44590 -82.26208 35821 ft 451 kts 186°
2026-05-05 00:53 39.38303 -82.26529 35823 ft 452 kts 186°
2026-05-05 00:53 39.32038 -82.26846 35828 ft 451 kts 186°
2026-05-05 00:54 39.25750 -82.27165 35832 ft 452 kts 186°
2026-05-05 00:54 39.19482 -82.27481 35839 ft 452 kts 186°
2026-05-05 00:55 39.13176 -82.27799 35847 ft 452 kts 186°
2026-05-05 00:55 39.06875 -82.28117 35847 ft 451 kts 186°
2026-05-05 00:56 39.00594 -82.28432 35845 ft 451 kts 186°
2026-05-05 00:56 38.94339 -82.28745 35853 ft 451 kts 186°
2026-05-05 00:57 38.88043 -82.29062 35856 ft 452 kts 186°
2026-05-05 00:57 38.81775 -82.29376 35860 ft 452 kts 186°
2026-05-05 00:58 38.75480 -82.29690 35862 ft 452 kts 186°
2026-05-05 00:58 38.69172 -82.30006 35866 ft 452 kts 187°
2026-05-05 00:59 38.62902 -82.30316 35873 ft 452 kts 187°
2026-05-05 00:59 38.56601 -82.30630 35876 ft 452 kts 187°
2026-05-05 01:00 38.50312 -82.30943 35888 ft 453 kts 187°
2026-05-05 01:00 38.44006 -82.31257 35886 ft 452 kts 187°
2026-05-05 01:01 38.37716 -82.31566 35889 ft 452 kts 187°
2026-05-05 01:01 38.31438 -82.31876 35892 ft 452 kts 187°
2026-05-05 01:02 38.25106 -82.32193 35903 ft 453 kts 188°
2026-05-05 01:02 38.18953 -82.33301 35912 ft 443 kts 202°
2026-05-05 01:03 38.13312 -82.36433 35912 ft 437 kts 213°
2026-05-05 01:03 38.08040 -82.40159 35901 ft 435 kts 214°
2026-05-05 01:04 38.02765 -82.44022 35904 ft 435 kts 215°
2026-05-05 01:04 37.94862 -82.49725 35895 ft 436 kts 214°
2026-05-05 01:05 37.89619 -82.53451 35898 ft 435 kts 214°
2026-05-05 01:05 37.84316 -82.57192 35909 ft 434 kts 214°
2026-05-05 01:06 37.79044 -82.60899 35920 ft 436 kts 214°
2026-05-05 01:06 37.73675 -82.64662 35920 ft 435 kts 214°
2026-05-05 01:07 37.68441 -82.68324 35925 ft 436 kts 213°
2026-05-05 01:07 37.63125 -82.72038 35924 ft 435 kts 213°
2026-05-05 01:08 37.57795 -82.75759 35929 ft 436 kts 213°
2026-05-05 01:08 37.52477 -82.79462 35934 ft 436 kts 213°
2026-05-05 01:09 37.47167 -82.83151 35940 ft 435 kts 214°
2026-05-05 01:09 37.41861 -82.86832 35950 ft 436 kts 213°
2026-05-05 01:10 37.36519 -82.90533 35951 ft 436 kts 214°
2026-05-05 01:10 37.31183 -82.94224 35951 ft 436 kts 214°
2026-05-05 01:11 37.25889 -82.97881 35948 ft 436 kts 214°
2026-05-05 01:11 37.20557 -83.01560 35951 ft 437 kts 214°
2026-05-05 01:12 37.15228 -83.05229 35957 ft 436 kts 214°
2026-05-05 01:12 37.09874 -83.08909 35960 ft 437 kts 214°
2026-05-05 01:13 37.04561 -83.12551 35962 ft 435 kts 214°
2026-05-05 01:13 36.99222 -83.16209 35972 ft 436 kts 214°
2026-05-05 01:14 36.93891 -83.19857 35969 ft 437 kts 214°
2026-05-05 01:14 36.88553 -83.23500 35972 ft 436 kts 214°
2026-05-05 01:15 36.83247 -83.27119 35968 ft 436 kts 214°
2026-05-05 01:15 36.77889 -83.30767 35971 ft 436 kts 214°
2026-05-05 01:16 36.72548 -83.34396 35972 ft 436 kts 214°
2026-05-05 01:16 36.67210 -83.38016 35973 ft 435 kts 214°
2026-05-05 01:17 36.61901 -83.41611 35976 ft 435 kts 214°
2026-05-05 01:17 36.56564 -83.45220 35973 ft 434 kts 214°
2026-05-05 01:18 36.51246 -83.48813 35971 ft 435 kts 214°
2026-05-05 01:18 36.45930 -83.52397 35964 ft 435 kts 214°
2026-05-05 01:19 36.40564 -83.56009 35970 ft 435 kts 214°
2026-05-05 01:19 36.35237 -83.59589 35968 ft 434 kts 214°
2026-05-05 01:20 36.29915 -83.63160 35977 ft 434 kts 214°
2026-05-05 01:20 36.24627 -83.66703 35979 ft 433 kts 214°
2026-05-05 01:21 36.19279 -83.70281 35976 ft 434 kts 213°
2026-05-05 01:21 36.13956 -83.73837 35967 ft 435 kts 213°
2026-05-05 01:22 36.08644 -83.77377 35982 ft 434 kts 214°
2026-05-05 01:22 36.03304 -83.80931 35979 ft 434 kts 214°
2026-05-05 01:23 35.97975 -83.84475 35978 ft 434 kts 214°
2026-05-05 01:23 35.92552 -83.87968 35985 ft 437 kts 211°
2026-05-05 01:24 35.86911 -83.90445 35985 ft 446 kts 200°
2026-05-05 01:24 35.80872 -83.92064 35979 ft 448 kts 197°
2026-05-05 01:25 35.74714 -83.93472 35984 ft 450 kts 196°
2026-05-05 01:25 35.68544 -83.94882 35982 ft 449 kts 196°
2026-05-05 01:26 35.62424 -83.96323 35986 ft 450 kts 197°
2026-05-05 01:26 35.56237 -83.97803 35999 ft 450 kts 197°
2026-05-05 01:27 35.50071 -83.99288 35998 ft 450 kts 197°
2026-05-05 01:27 35.43883 -84.00782 36015 ft 452 kts 197°
2026-05-05 01:28 35.37695 -84.02273 36040 ft 451 kts 197°
2026-05-05 01:28 35.31532 -84.03757 36072 ft 452 kts 197°
2026-05-05 01:29 35.25323 -84.05248 36082 ft 452 kts 197°
2026-05-05 01:29 35.19181 -84.06722 36078 ft 452 kts 197°
2026-05-05 01:30 35.12971 -84.08211 36073 ft 452 kts 197°
2026-05-05 01:30 35.06759 -84.09699 36056 ft 452 kts 197°
2026-05-05 01:31 35.00554 -84.11183 36040 ft 454 kts 197°
2026-05-05 01:31 34.94386 -84.12656 36048 ft 454 kts 197°
2026-05-05 01:32 34.88203 -84.14130 36050 ft 454 kts 197°
2026-05-05 01:32 34.82290 -84.15534 36048 ft 455 kts 197°
2026-05-05 01:33 34.76018 -84.17025 36046 ft 457 kts 197°
2026-05-05 01:33 34.69782 -84.18502 36048 ft 456 kts 197°
2026-05-05 01:34 34.63540 -84.19978 36038 ft 458 kts 197°
2026-05-05 01:34 34.57272 -84.21461 36036 ft 458 kts 197°
2026-05-05 01:35 34.51018 -84.22938 36016 ft 459 kts 197°
2026-05-05 01:35 34.44764 -84.24413 36025 ft 459 kts 198°
2026-05-05 01:36 34.38432 -84.25906 36019 ft 461 kts 198°
2026-05-05 01:36 34.32122 -84.27384 36037 ft 463 kts 198°
2026-05-05 01:37 34.25855 -84.28854 36028 ft 462 kts 198°
2026-05-05 01:37 34.19523 -84.30337 36038 ft 463 kts 198°
2026-05-05 01:38 34.13213 -84.31816 36023 ft 465 kts 198°
2026-05-05 01:38 34.06838 -84.33305 36029 ft 465 kts 198°
2026-05-05 01:39 34.00516 -84.34776 36023 ft 464 kts 198°
2026-05-05 01:39 33.94160 -84.36258 36030 ft 468 kts 198°
2026-05-05 01:40 33.88038 -84.37685 36028 ft 470 kts 199°
2026-05-05 01:40 33.81608 -84.39171 36029 ft 465 kts 199°
2026-05-05 01:41 33.75277 -84.40642 36030 ft 468 kts 199°
2026-05-05 01:41 33.68795 -84.42131 36038 ft 471 kts 198°
2026-05-05 01:42 33.62183 -84.42556 36159 ft 492 kts 179°
2026-05-05 01:42 33.58780 -84.41614 36044 ft 498 kts 168°
2026-05-05 01:42 33.55535 -84.40243 36046 ft 500 kts 165°
2026-05-05 01:43 33.49044 -84.37080 36033 ft 505 kts 162°
2026-05-05 01:43 33.42567 -84.33776 35771 ft 506 kts 162°
2026-05-05 01:44 33.39307 -84.32126 36059 ft 505 kts 162°
2026-05-05 01:44 33.36069 -84.30508 36044 ft 507 kts 163°
2026-05-05 01:44 33.29569 -84.27307 36041 ft 503 kts 163°
2026-05-05 01:45 33.23063 -84.24149 36170 ft 507 kts 163°
2026-05-05 01:45 33.19780 -84.22562 36392 ft 507 kts 164°
2026-05-05 01:45 33.16483 -84.20969 36599 ft 508 kts 163°
2026-05-05 01:46 33.13195 -84.19384 36714 ft 511 kts 163°
2026-05-05 01:46 33.09896 -84.17796 36597 ft 513 kts 164°
2026-05-05 01:46 33.06584 -84.16202 37054 ft 513 kts 164°
2026-05-05 01:46 33.03287 -84.14616 36839 ft 515 kts 164°
2026-05-05 01:47 32.96624 -84.11410 37225 ft 515 kts 163°
2026-05-05 01:47 32.93299 -84.09812 37042 ft 515 kts 164°
2026-05-05 01:47 32.89993 -84.08221 37041 ft 510 kts 164°
2026-05-05 01:48 32.83762 -84.05228 37037 ft 512 kts 164°
2026-05-05 01:48 32.77065 -84.02025 37036 ft 515 kts 164°
2026-05-05 01:49 32.70413 -83.98843 37037 ft 515 kts 164°
2026-05-05 01:49 32.63780 -83.95678 37036 ft 513 kts 164°
2026-05-05 01:50 32.57103 -83.92499 37039 ft 516 kts 164°
2026-05-05 01:50 32.50402 -83.89312 37043 ft 518 kts 164°
2026-05-05 01:51 32.43730 -83.86141 37040 ft 518 kts 164°
2026-05-05 01:51 32.37042 -83.82968 37041 ft 516 kts 164°
2026-05-05 01:52 32.30365 -83.79807 37036 ft 518 kts 164°
2026-05-05 01:52 32.23636 -83.76628 37040 ft 519 kts 164°
2026-05-05 01:53 32.16916 -83.73457 37039 ft 518 kts 165°
2026-05-05 01:53 32.10204 -83.70292 37037 ft 519 kts 164°
2026-05-05 01:54 32.03464 -83.67125 37039 ft 521 kts 164°
2026-05-05 01:54 31.96715 -83.63953 37040 ft 518 kts 165°
2026-05-05 01:55 31.90029 -83.60816 37045 ft 520 kts 165°
2026-05-05 01:55 31.83463 -83.57742 37044 ft 519 kts 164°
2026-05-05 01:56 31.76720 -83.54591 37040 ft 519 kts 164°
2026-05-05 01:56 31.69974 -83.51445 37044 ft 519 kts 164°
2026-05-05 01:57 31.63256 -83.48315 37050 ft 519 kts 165°
2026-05-05 01:57 31.56497 -83.45170 37048 ft 517 kts 164°
2026-05-05 01:58 31.49783 -83.42051 36971 ft 516 kts 164°
2026-05-05 01:58 31.43048 -83.38929 37056 ft 519 kts 164°
2026-05-05 01:59 31.36334 -83.35820 37050 ft 517 kts 164°
2026-05-05 01:59 31.29661 -83.32731 37050 ft 516 kts 165°
2026-05-05 02:00 31.22963 -83.29637 37042 ft 515 kts 164°
2026-05-05 02:00 31.16249 -83.26542 37047 ft 516 kts 165°
2026-05-05 02:01 31.09537 -83.23453 37047 ft 514 kts 164°
2026-05-05 02:01 31.02865 -83.20390 37045 ft 515 kts 164°
2026-05-05 02:02 30.96226 -83.17343 37048 ft 514 kts 164°
2026-05-05 02:02 30.89558 -83.14290 37047 ft 514 kts 165°
2026-05-05 02:03 30.82963 -83.11075 37048 ft 519 kts 159°
2026-05-05 02:03 30.76704 -83.06671 37050 ft 524 kts 147°
2026-05-05 02:04 30.71010 -83.01374 37048 ft 527 kts 142°
2026-05-05 02:04 30.65503 -82.95687 37047 ft 529 kts 141°
2026-05-05 02:05 30.60030 -82.89908 37045 ft 528 kts 140°
2026-05-05 02:05 30.54563 -82.84190 37048 ft 526 kts 141°
2026-05-05 02:06 30.49052 -82.78502 37049 ft 526 kts 141°
2026-05-05 02:06 30.43581 -82.72899 37049 ft 526 kts 141°
2026-05-05 02:07 30.38051 -82.67250 37052 ft 527 kts 141°
2026-05-05 02:07 30.32529 -82.61619 37056 ft 525 kts 142°
2026-05-05 02:08 30.27014 -82.56010 37057 ft 527 kts 142°
2026-05-05 02:08 30.21495 -82.50397 37061 ft 523 kts 142°
2026-05-05 02:09 30.15980 -82.44902 37062 ft 523 kts 144°
2026-05-05 02:09 30.09914 -82.40485 36854 ft 507 kts 162°
2026-05-05 02:10 30.06645 -82.39072 36435 ft 496 kts 168°
2026-05-05 02:10 30.03334 -82.37945 35882 ft 491 kts 172°
2026-05-05 02:10 30.00016 -82.36974 35199 ft 490 kts 174°
2026-05-05 02:10 29.96665 -82.36073 34435 ft 491 kts 174°
2026-05-05 02:11 29.93298 -82.35201 33642 ft 494 kts 175°
2026-05-05 02:11 29.89914 -82.34328 32865 ft 496 kts 175°
2026-05-05 02:11 29.86527 -82.33451 32058 ft 500 kts 175°
2026-05-05 02:11 29.83176 -82.32570 31210 ft 503 kts 174°
2026-05-05 02:12 29.79746 -82.31657 30314 ft 506 kts 174°
2026-05-05 02:12 29.72870 -82.29842 28862 ft 500 kts 174°
2026-05-05 02:12 29.69468 -82.28989 28301 ft 494 kts 175°
2026-05-05 02:13 29.66100 -82.28163 27722 ft 489 kts 174°
2026-05-05 02:13 29.62803 -82.27363 27126 ft 484 kts 174°
2026-05-05 02:13 29.59485 -82.26561 26535 ft 479 kts 174°
2026-05-05 02:13 29.56210 -82.25767 25943 ft 475 kts 174°
2026-05-05 02:14 29.53005 -82.24989 25353 ft 471 kts 174°
2026-05-05 02:14 29.49787 -82.24207 24760 ft 467 kts 174°
2026-05-05 02:14 29.46616 -82.23434 24167 ft 462 kts 173°
2026-05-05 02:14 29.43452 -82.22660 23581 ft 458 kts 173°
2026-05-05 02:15 29.40352 -82.21903 23008 ft 454 kts 173°
2026-05-05 02:15 29.37259 -82.21148 22422 ft 450 kts 173°
2026-05-05 02:15 29.34168 -82.20391 21829 ft 445 kts 173°
2026-05-05 02:15 29.31135 -82.19623 21246 ft 442 kts 171°
2026-05-05 02:16 29.28188 -82.18670 20679 ft 441 kts 166°
2026-05-05 02:16 29.25279 -82.17481 20094 ft 438 kts 163°
2026-05-05 02:16 29.22458 -82.16187 19529 ft 434 kts 161°
2026-05-05 02:16 29.19674 -82.14846 18950 ft 430 kts 160°
2026-05-05 02:17 29.16921 -82.13494 18393 ft 426 kts 160°
2026-05-05 02:17 29.14201 -82.12153 17760 ft 420 kts 160°
2026-05-05 02:17 29.11542 -82.10847 17285 ft 401 kts 160°
2026-05-05 02:17 29.09026 -82.09621 17051 ft 384 kts 160°
2026-05-05 02:18 29.06610 -82.08454 16683 ft 371 kts 160°
2026-05-05 02:18 29.04152 -82.07284 16191 ft 386 kts 160°
2026-05-05 02:18 29.01636 -82.06067 15645 ft 388 kts 158°
2026-05-05 02:18 28.99267 -82.04657 15108 ft 378 kts 149°
2026-05-05 02:19 28.97162 -82.02901 14530 ft 370 kts 140°
2026-05-05 02:19 28.95297 -82.00937 13995 ft 360 kts 135°
2026-05-05 02:19 28.93546 -81.98888 13485 ft 363 kts 134°
2026-05-05 02:19 28.91767 -81.96731 12962 ft 370 kts 134°
2026-05-05 02:20 28.90007 -81.94595 12424 ft 363 kts 134°
2026-05-05 02:20 28.88302 -81.92545 11933 ft 352 kts 135°
2026-05-05 02:20 28.86547 -81.90550 11551 ft 350 kts 138°
2026-05-05 02:20 28.84745 -81.88694 11332 ft 343 kts 140°
2026-05-05 02:21 28.82977 -81.86951 11231 ft 322 kts 141°
2026-05-05 02:21 28.81321 -81.85332 11113 ft 303 kts 141°
2026-05-05 02:21 28.79742 -81.83789 10922 ft 291 kts 142°
2026-05-05 02:21 28.78157 -81.82363 10516 ft 284 kts 145°
2026-05-05 02:22 28.76606 -81.81065 10369 ft 268 kts 146°
2026-05-05 02:22 28.75123 -81.79827 10191 ft 256 kts 146°
2026-05-05 02:22 28.73722 -81.78634 10010 ft 244 kts 145°
2026-05-05 02:22 28.72388 -81.77478 9777 ft 237 kts 145°
2026-05-05 02:23 28.71088 -81.76344 9456 ft 233 kts 144°
2026-05-05 02:23 28.69795 -81.75213 9073 ft 233 kts 144°
2026-05-05 02:23 28.68509 -81.74089 8726 ft 231 kts 144°
2026-05-05 02:23 28.67231 -81.72974 8399 ft 228 kts 144°
2026-05-05 02:24 28.65977 -81.71880 8061 ft 226 kts 144°
2026-05-05 02:24 28.64732 -81.70793 7699 ft 225 kts 144°
2026-05-05 02:24 28.63491 -81.69711 7355 ft 223 kts 143°
2026-05-05 02:24 28.62260 -81.68638 6985 ft 222 kts 143°
2026-05-05 02:25 28.61041 -81.67575 6630 ft 221 kts 143°
2026-05-05 02:25 28.59822 -81.66512 6272 ft 219 kts 143°
2026-05-05 02:25 28.58607 -81.65453 5956 ft 216 kts 143°
2026-05-05 02:25 28.57420 -81.64420 5670 ft 211 kts 143°
2026-05-05 02:26 28.56286 -81.63432 5491 ft 201 kts 142°
2026-05-05 02:26 28.55198 -81.62484 5214 ft 197 kts 142°
2026-05-05 02:26 28.54106 -81.61533 4888 ft 196 kts 141°
2026-05-05 02:26 28.53024 -81.60591 4568 ft 194 kts 141°
2026-05-05 02:27 28.51962 -81.59669 4381 ft 184 kts 141°
2026-05-05 02:27 28.50955 -81.58794 4170 ft 179 kts 141°
2026-05-05 02:27 28.49970 -81.57935 3916 ft 177 kts 140°
2026-05-05 02:27 28.48999 -81.57090 3707 ft 175 kts 140°
2026-05-05 02:28 28.48031 -81.56248 3479 ft 173 kts 140°
2026-05-05 02:28 28.47133 -81.55359 3299 ft 170 kts 126°
2026-05-05 02:28 28.46735 -81.54147 3151 ft 169 kts 88°
2026-05-05 02:28 28.47065 -81.52840 3045 ft 172 kts 68°
2026-05-05 02:29 28.47536 -81.51601 2908 ft 169 kts 70°
2026-05-05 02:29 28.47968 -81.50410 2780 ft 160 kts 70°
2026-05-05 02:29 28.48401 -81.49281 2672 ft 149 kts 69°
2026-05-05 02:29 28.48806 -81.48229 2506 ft 142 kts 70°
2026-05-05 02:30 28.49206 -81.47177 2394 ft 150 kts 69°
2026-05-05 02:30 28.49629 -81.46075 2242 ft 152 kts 69°
2026-05-05 02:30 28.50050 -81.44981 2101 ft 150 kts 70°
2026-05-05 02:30 28.50473 -81.43870 1950 ft 151 kts 69°
2026-05-05 02:31 28.50896 -81.42774 1761 ft 150 kts 70°
2026-05-05 02:31 28.51306 -81.41702 1560 ft 149 kts 69°
2026-05-05 02:31 28.51720 -81.40618 1366 ft 140 kts 69°
2026-05-05 02:31 28.52104 -81.39624 1159 ft 134 kts 69°
2026-05-05 02:32 28.52471 -81.38653 1001 ft 134 kts 69°
2026-05-05 02:32 28.52855 -81.37653 813 ft 137 kts 67°
2026-05-05 02:32 28.53249 -81.36673 652 ft 138 kts 68°
2026-05-05 02:32 28.53649 -81.35648 446 ft 142 kts 68°
2026-05-05 02:33 28.54026 -81.34615 270 ft 143 kts 68°
2026-05-05 02:33 28.54426 -81.33571 131 ft 141 kts 68°
2026-05-05 02:33 28.54791 -81.32596 115 ft 112 kts 68°
2026-05-05 02:33 28.54980 -81.32076 109 ft 32 kts 49°
2026-05-05 02:34 28.55053 -81.32069 108 ft 1 kts 273°
2026-05-05 02:34 28.55050 -81.32077 109 ft 1 kts 243°
2026-05-05 02:34 28.55036 -81.32102 110 ft 6 kts 236°
2026-05-05 02:34 28.55009 -81.32158 111 ft 8 kts 246°
2026-05-05 02:35 28.54998 -81.32221 112 ft 8 kts 283°
2026-05-05 02:35 28.55040 -81.32288 112 ft 14 kts 297°
2026-05-05 02:35 28.55016 -81.32389 113 ft 12 kts 245°
2026-05-05 02:35 28.54980 -81.32475 114 ft 11 kts 245°
2026-05-05 02:36 28.54950 -81.32555 115 ft 10 kts 248°
2026-05-05 02:36 28.54920 -81.32639 115 ft 12 kts 248°
2026-05-05 02:36 28.54886 -81.32734 115 ft 13 kts 247°
2026-05-05 02:36 28.54845 -81.32839 115 ft 15 kts 245°
2026-05-05 02:37 28.54801 -81.32958 115 ft 17 kts 248°
2026-05-05 02:37 28.54764 -81.33068 114 ft 13 kts 250°
2026-05-05 02:37 28.54726 -81.33173 113 ft 15 kts 257°
2026-05-05 02:37 28.54712 -81.33305 112 ft 17 kts 264°
2026-05-05 02:38 28.54700 -81.33446 111 ft 18 kts 265°
2026-05-05 02:38 28.54708 -81.33570 110 ft 13 kts 277°
2026-05-05 02:38 28.54735 -81.33674 110 ft 12 kts 303°
2026-05-05 02:38 28.54772 -81.33717 110 ft 6 kts 322°
2026-05-05 02:39 28.54785 -81.33730 110 ft 0 kts 305°
2026-05-05 02:39 28.54789 -81.33737 110 ft 0 kts 306°